Flag for Germany Weather past 2 weeks in Westerstede, Lower Saxony, Germany

41 °F

Passing clouds.

Feels Like: 37 °F
Forecast: 38 / 47 °F
Wind: 6 mph from West

Location: Wittmundhaven

Current Time: Nov 26, 2015 at 12:56:43 AM

Latest Report: Nov 25, 2015 at 11:20 PM

Visibility: N/A

Pressure: 29.71 "Hg

Humidity: 93%

Dew point: 39 °F

Location of WesterstedeLocation

Historic Weather in Westerstede — Graph


Westerstede temperature yesterday

Maximum temperature yesterday: 45 °F (at 2:20 PM)
Minimum temperature yesterday: 37 °F (at 12:20 AM)
Average temperature yesterday: 41 °F

Past Weeks' High & Low Weather Summary

High59 °F (Nov 10, 11:20 PM)100% (Nov 11, 10:20 AM)30.21 "Hg (Nov 11, 10:20 AM)
Low28 °F (Nov 23, 8:20 AM)54% (Nov 13, 2:20 PM)29.27 "Hg (Nov 21, 5:20 AM)
Average47 °F86%29.77 "Hg
* Reported Nov 10 11:20 PM — Nov 25 11:20 PM, Westerstede, Weather by CustomWeather, © 2015

Note: Actual official high and low records may vary slightly from our data, if they occured in-between our weather recording intervals... More about our weather records


Westerstede weather history for previous 24 hours

Time TempWeatherWind HumidityBarometerVisibility
11:20 PM
Wed, Nov 25
41 °FPassing clouds.6 mph93%29.71 "HgN/A
10:20 PM39 °FPassing clouds.7 mph100%29.71 "HgN/A
9:20 PM41 °FSprinkles. Passing clouds.9 mph93%29.68 "HgN/A
8:20 PM41 °FPassing clouds.8 mph93%29.68 "HgN/A
8:03 PM39 °FPassing clouds.7 mph93%29.65 "HgN/A
7:20 PM41 °FPassing clouds.8 mph87%29.65 "HgN/A
6:20 PM41 °FPassing clouds.8 mph93%29.62 "HgN/A
5:20 PM41 °FPassing clouds.7 mph93%29.62 "HgN/A
4:20 PM41 °FPassing clouds.7 mph93%29.59 "HgN/A
3:20 PM43 °FScattered clouds.8 mph87%29.59 "HgN/A
2:20 PM45 °FScattered clouds.5 mph81%29.56 "HgN/A
1:20 PM43 °FSprinkles. Broken clouds.6 mph93%29.59 "Hg4 mi
12:20 PM43 °FSprinkles. Broken clouds.3 mph93%29.59 "Hg5 mi
11:20 AM43 °FSprinkles. Fog.8 mph93%29.59 "Hg3 mi
11:02 AM43 °FSprinkles. Fog.9 mph93%29.59 "Hg3 mi
10:20 AM43 °FSprinkles. Fog.7 mph93%29.56 "Hg2 mi
9:20 AM41 °FFog.9 mph100%29.56 "Hg2 mi
8:20 AM41 °FFog.8 mph100%29.56 "Hg2 mi
7:20 AM41 °FDrizzle. Fog.9 mph100%29.56 "Hg2 mi
6:20 AM41 °FLight rain. Fog.9 mph100%29.56 "Hg1 mi
5:53 AM41 °FFog.9 mph100%29.56 "Hg1 mi
5:20 AM41 °FFog.9 mph100%29.56 "Hg1 mi
4:20 AM41 °FFog.10 mph93%29.59 "Hg1 mi
3:20 AM39 °FFog.12 mph100%29.59 "Hg1 mi
2:20 AM39 °FFog.13 mph93%29.59 "Hg2 mi
1:20 AM39 °FFog.13 mph93%29.62 "Hg3 mi
12:20 AM37 °FFog.14 mph100%29.62 "Hg3 mi
Weather by CustomWeather, © 2015

See weather overviewHow to use our weather pages